This is the latest recevied weather packets stored in our database for station/object KE8KMM. If no packets are shown the sender has not sent any weather packets the latest 1 day(s).
| Time | Temp. | Humidity | Pressure | Rain* | Wind** | Luminosity | Snow |
|---|---|---|---|---|---|---|---|
| 1778056820 | 10° C | 96% | 1005.9 hPa | 4.83 mm | - | 0 W/m² | - |
| 1778056518 | 10° C | 96% | 1005.6 hPa | 1.78 mm | - | 0 W/m² | - |
| 1778056215 | 10° C | 96% | 1005.4 hPa | 1.27 mm | - | 0 W/m² | - |
| 1778055912 | 10° C | 96% | 1005.1 hPa | 1.27 mm | - | 0 W/m² | - |
| 1778055306 | 10° C | 96% | 1004.8 hPa | 0 mm | - | 0 W/m² | - |
| 1778054700 | 10° C | 96% | 1005 hPa | 3.05 mm | - | 0 W/m² | - |
| 1778054397 | 10.56° C | 96% | 1005 hPa | 4.32 mm | - | 0 W/m² | - |
| 1778054095 | 10.56° C | 97% | 1004.8 hPa | 4.83 mm | - | 0 W/m² | - |
| 1778053186 | 10.56° C | 96% | 1004.7 hPa | 6.1 mm | - | 0 W/m² | - |
| 1778052581 | 11.67° C | 97% | 1004.7 hPa | 6.1 mm | - | 0 W/m² | - |
| 1778052278 | 11.67° C | 97% | 1004.3 hPa | 3.05 mm | - | 0 W/m² | - |
| 1778051976 | 11.67° C | 97% | 1004.5 hPa | 3.05 mm | - | 0 W/m² | - |
| 1778051370 | 12.22° C | 96% | 1004.1 hPa | 3.56 mm | - | 0 W/m² | - |
| 1778051067 | 13.33° C | 96% | 1004.4 hPa | 3.05 mm | - | 0 W/m² | - |
| 1778050764 | 14.44° C | 97% | 1004.3 hPa | 3.05 mm | - | 0 W/m² | - |
| 1778050462 | 14.44° C | 97% | 1004.4 hPa | 4.83 mm | - | 0 W/m² | - |
| 1778050158 | 14.44° C | 97% | 1004.2 hPa | 3.05 mm | - | 0 W/m² | - |
| 1778049854 | 14.44° C | 97% | 1004.2 hPa | 3.05 mm | - | 0 W/m² | - |
| 1778049551 | 14.44° C | 97% | 1004.2 hPa | 4.83 mm | - | 0 W/m² | - |
| 1778049249 | 14.44° C | 97% | 1004.3 hPa | 4.32 mm | - | 0 W/m² | - |
| 1778048645 | 14.44° C | 97% | 1004.7 hPa | 1.78 mm | - | 0 W/m² | - |
| 1778048037 | 14.44° C | 97% | 1004.6 hPa | 0 mm | - | 0 W/m² | - |
| 1778047735 | 14.44° C | 97% | 1004.6 hPa | 0 mm | - | 0 W/m² | - |
| 1778047433 | 14.44° C | 97% | 1004.6 hPa | 0 mm | - | 0 W/m² | - |
| 1778046826 | 14.44° C | 97% | 1004.9 hPa | 0 mm | - | 0 W/m² | - |
* Rain latest hour (hover to see other rain measurements)
** Current wind speed in m/s (hover to see current wind gust speed)